www.pogodaiklimat.ru

Погода и климат >> Архив погоды >> Россия >> Краснодарский край >> Кущевская


ПОГОДА в Кущевской

  • Прогноз погоды в Кущевской
  • Монитор погоды в Кущевской
  • Климат города

АРХИВ ПОГОДЫ в Кущевской

Время (UTC), дата Ветер
(напр.,м/с)
 
Видим.   Явления Облачность Т
(С)
Тd
(С)
f
(%)
Тe
(С)
Тes
(С)
Комфортность P
(гПа)
Po
(гПа)
Тmin
(С)
Tmax
(С)
R
(мм)
R24
(мм)
S
(см)
18 12.07 СЗ 1 10 км 8/3 1000 м
[Sc Ac cuf]
+28.2 +13.4 40 +30 +30 жарко 1008.3 1005.8
21 12.07 З 1 10 км ясно +24.5 +16.9 63 +28 +28 душно 1008.5 1006.0
00 13.07 СЗ 1 10 км ясно +22.6 +16.2 67 +27 +27 душно 1008.6 1006.1
03 13.07 З 1 10 км 6/0
[Ci fib]
+22.2 +16.8 71 +27 +28 душно 1008.7 1006.2 +20.6
06 13.07 СЗ 1 10 км 4/0
[Ci fib]
+31.0 +16.5 42 +34 +45 душно 1008.5 1006.1
09 13.07 С 2 10 км 4/4 1000 м
[Cu hum]
+33.9 +13.2 29 +35 +46 очень
жарко
1007.9 1005.5
12 13.07 З 3 10 км 4/4 1000 м
[Cu med, cong]
+35.2 +11.2 23 +35 +41 очень
жарко
1006.9 1004.5
15 13.07 СЗ 2 10 км 3/3 1000 м
[Cu hum]
+34.6 +11.0 24 +34 +36 очень
жарко
1005.9 1003.5 +35.8
18 13.07 СЗ 1 10 км ясно +28.0 +13.3 40 +30 +30 жарко 1006.7 1004.2
21 13.07 З 1 10 км ясно +25.4 +17.8 63 +30 +30 душно 1006.7 1004.2
00 14.07 З 1 10 км ясно +23.8 +17.8 69 +28 +28 душно 858.8
03 14.07 З 1 10 км 8/8 600 м
[Sc]
+22.4 +18.3 78 +28 +28 душно 1005.5 1003.1 +19.8
06 14.07 С 1 10 км 3/3 1000 м
[Cu hum]
+31.0 +17.8 45 +35 +43 очень
душно
1004.8 1002.4 +22.3
09 14.07 С 3 10 км 8/4 600 м
[Cu med, cong Ci fib]
+34.8 +16.5 34 +38 +45 очень
душно
1003.9 1001.5
12 14.07 С 3 10 км 4/3 1000 м
[Cu med, cong Ci fib]
+35.0 +18.0 37 +39 +46 очень
душно
1002.5 1000.1
15 14.07 С 1 10 км гроза без осадков 9/9 600 м
[Cb cap]
+29.2 +18.7 53 +34 +35 очень
душно
1002.5 1000.1 +38.6
18 14.07 С 1 10 км {гроза} 10/3 600 м
[Cb cap Ci fib]
+26.8 +18.2 59 +31 +31 душно 1003.5 1001.1
21 14.07 штиль 0 10 км ясно +23.1 +18.0 73 +29 +29 очень
душно
1003.3 1000.8
00 15.07 С 1 10 км ясно +21.4 +18.4 83 +26 +26 душно 1003.2 1000.7
03 15.07 С 1 10 км 8/0
[Ac cast Ci fib]
+20.9 +17.3 80 +26 +27 душно 1003.8 1001.3 +20.7
06 15.07 С 1 н/о н/о +27.1 +15.7 50 +30 +30 душно 1003.4 1000.9
09 15.07 С 2 10 км 10/3 1000 м
[Sc Ci fib]
+29.7 +18.6 51 +35 +45 очень
душно
1003.3 1000.9
12 15.07 С 2 10 км 9/9 1000 м
[Sc]
+31.3 +15.8 39 +34 +35 душно 1002.7 1000.3
15 15.07 З 3 н/о н/о +29.7 +12.0 34 +31 +31 жарко 1002.5 1000.1 +32.3
18 15.07 С 2 10 км 10/10 1000 м
[Sc]
+27.2 +17.6 56 +31 +31 душно 1003.6 1001.2
21 15.07 ЮВ 3 н/о н/о +21.8 +17.2 75 +26 +26 душно 1004.7 1002.2
00 16.07 С 2 10 км 10/10 1000 м
[Sc]
+21.0 +15.8 72 +25 +25 комфорт 1004.0 1001.5
03 16.07 С 2 10 км 10/10 600 м
[Cb cap]
+21.6 +16.9 75 +26 +26 душно 1003.4 1000.9 +20.9
06 16.07 ЮВ 3 н/о н/о +22.5 +17.5 73 +27 +27 душно 1003.2 1000.7
09 16.07 ЮВ 2 10 км 10/10 600 м
[Cb cap]
+22.5 +17.1 72 +27 +27 душно 1003.4 1000.9
12 16.07 ЮЗ 2 10 км в посл. час гроза 10/10 600 м
[Cb cap]
+24.6 +16.6 61 +28 +28 душно 1002.7 1000.2
15 16.07 ЮЗ 4-11
{11}
10 км 8/4 600 м
[Cb cap Ci fib]
+26.3 +15.0 50 +29 +30 жарко 1003.4 1000.9 +28.8 0.0
18 16.07 Ю 1
{11}
10 км гроза без осадков 10/10 600 м
[Cb cap]
+20.9 +15.2 70 +25 +25 комфорт 1004.7 1002.2
21 16.07 Ю 1 10 км {гроза, ливн. осадки} 3/3 1000 м
[Sc diur, vesp]
+19.2 +16.5 84 +22 +22 комфорт 1003.8 1001.2
00 17.07 Ю 2 10 км {гроза, ливн. осадки} ясно +19.8 +16.9 83 +23 +23 комфорт 1003.4 1000.8
03 17.07 ЮЗ 1 10 км 10/0
[Ac lent Ci fib]
+19.1 +15.6 80 +22 +22 комфорт 1003.3 1000.7 +18.7 2
06 17.07 Ю 3 10 км гроза, ливневой дождь 10/10 600 м
[Cb cap]
+18.6 +15.9 84 +20 +20 1003.7 1001.1
09 17.07 Ю 3 10 км {гроза, ливн. осадки} 10/0
[Cs]
+18.6 +16.1 85 +20 +32 1003.7 1000.9
12 17.07 ЮЗ 3 10 км {гроза, ливн. осадки} 8/8 600 м
[Cu med, cong]
+28.6 +15.4 45 +31 +34 жарко 1003.2 1000.7
15 17.07 ЮЗ 2
{10}
10 км 4/3 1000 м
[Cu med, cong Ci fib]
+28.3 +13.7 41 +30 +32 жарко 1003.7 1001.2 +29.1 2
18 17.07 Ю 2 10 км 10/3 1000 м
[Sc Ci fib]
+23.0 +16.8 68 +28 +28 душно 1003.9 1001.4
21 17.07 Ю 2 10 км ясно +21.9 +17.2 75 +26 +26 душно 1003.7 1001.2
00 18.07 Ю 1 10 км ясно +20.7 +17.4 81 +25 +25 комфорт 1003.4 1000.9
03 18.07 Ю 2 10 км ясно +20.7 +17.8 83 +25 +26 комфорт 1003.6 1001.0 +20.5
06 18.07 ЮЗ 3 10 км 8/4 600 м
[Cu med, cong Ci fib]
+26.3 +17.5 58 +30 +35 душно 1003.7 1001.2
09 18.07 ЮЗ 3
{10}
10 км 8/8 600 м
[Cb cap]
+29.2 +15.4 43 +32 +35 душно 1003.3 1000.8
12 18.07 ЮЗ 2 10 км 8/8 600 м
[Sc diur, vesp]
+29.2 +13.4 38 +31 +33 жарко 1003.2 1000.7
15 18.07 Ю 2 10 км 8/6 1000 м
[Sc diur, vesp Ci fib]
+27.8 +15.0 46 +30 +31 жарко 1003.3 1000.8 +30.7
18 18.07 Ю 1 10 км 3/0
[Cc]
+23.5 +15.7 62 +27 +27 душно 1003.8 1001.3
21 18.07 штиль 0 10 км ясно +20.6 +16.1 75 +23 +23 комфорт 1003.8 1001.3
00 19.07 В 1 10 км 10/0
[Ci sp]
+18.5 +15.6 83 +20 +20 1003.7 1001.1
03 19.07 штиль 0 10 км в посл. час ливневой дождь 10/10 600 м
[Cb cap]
+18.8 +16.2 85 +20 +20 1004.3 1001.7 +18.3 0.0
06 19.07 СЗ 1 10 км {ливн. осадки} 9/9 1000 м
[Sc diur, vesp]
+24.6 +19.0 71 +30 +31 очень
душно
1003.8 1001.3
09 19.07 В 1 10 км 10/3 1000 м
[Sc diur, vesp Ci fib]
+29.7 +15.0 41 +32 +44 душно 1003.4 1000.9
12 19.07 В 1 10 км гроза, ливневой дождь 10/10 600 м
[Cb cap]
+21.5 +19.2 87 +26 +26 душно 1004.5 1002.0

 

Местоположение метеостанции Кущевская (Краснодарский край, Россия): широта 46.53 долгота 39.62 высота над уровнем моря 22 м.

В архиве по умолчанию представлена погода в Кущевской за последнюю неделю. Архивные данные за месяц целиком и за предыдущие месяцы, начиная с января 2011 года, Вы можете получить, выбрав интересующий диапазон дат из раскрывающегося списка и нажав кнопку "Ввод!".


*Определитесь, кто Вы:
робот инопланетянин человек

Внимание! Время в таблицах - всемирное. Для получения местного времени необходимо прибавить поправку, которая в Кущевской равна 3 ч.

Смотрите также архив погоды в соседних городах и на ближайших метеорологических станциях:

Погода в Староминская (Краснодарский край, Россия) (46 км)
Погода в Сосыке (Краснодарский край, Россия) (47 км)
Погода в Зерноград (Ростовская область, Россия) (64 км)
Погода в Каневской (Краснодарский край, Россия) (72 км)
Погода в Маргаритово (Ростовская область, Россия) (72 км)
Погода в Тихорецке (Краснодарский край, Россия) (84 км)
Погода в Ростове-на-Дону (Ростовская область, Россия) (84 км)
Погода в Таганроге (Ростовская область, Россия) (92 км)
Погода в Ейске (Краснодарский край, Россия) (107 км)
Погода в Белой Глине (Краснодарский край, Россия) (109 км)

Пояснения к столбцам:

Ветер - указаны скорость ветра в м/с - средняя за 10 мин, порывы в срок и между сроками (в фигурных скобках) и направление, откуда дует ветер: С - северный, СВ - северо-восточный, В - восточный, ЮВ - юго-восточный, Ю - южный, ЮЗ - юго-западный, З - западный, СЗ - северо-западный.
Видимость - горизонтальная дальность видимости в метрах или километрах. При видимости от 1 до 10 км при отсутствии осадков обычно наблюдается дымка, при ухудшении видимости до 1 км и менее - туман. В сухую погоду видимость может ухудшаться дымом, пылью или мглою.
Явления - указаны атмосферные явления, наблюдавшиеся в срок или в последний час перед сроком; фигурными скобками обозначены явления, наблюдавшиеся между сроками (за 1-3 часа до срока); квадратными скобками обозначены град или гололедные отложения с указанием их диаметра в мм.
Облачность - указаны через наклонную черту общая и нижняя облачность в баллах и высота нижней границы облаков в метрах; квадратными скобками обозначены формы облаков: Ci - перистые, Cs - перисто-слоистые, Cc - перисто-кучевые, Ac - высококучевые, As - высокослоистые, Sc - слоисто-кучевые, Ns - слоисто-дождевые, Cu - кучевые, Cb - кучево-дождевые. Подробнее классификацию облаков см. в Атласе облаков (PDF).
T - Температура воздуха - температура, измеренная на высоте 2 м над землей.
Td - Температура точки росы - температура, при понижении до которой содержащийся в воздухе водяной пар достигнет насыщения.
f - Относительная влажность воздуха - влажноcть воздуха, измеренная на высоте 2 м над землей.
Te - Эффективная температура - температура, которую ощущает одетый по сезону человек в тени. Характеристика душности погоды. При расчете учитывается влияние влажности воздуха и скорости ветра на теплоощущения человека.
Tes - Эффективная температура на солнце - температура, которую ощущает человек, с поправкой на солнечный нагрев. Характеристика знойности погоды. Зависит от высоты солнца над горизонтом, облачности и скорости ветра. Ночью, в пасмурную погоду, а также при ветре 12 м/с и более поправка равна нулю.
P - Атмосферное давление - приведенное к уровню моря атмосферное давление.
Po - Атмосферное давление - измеренное на уровне метеостанции атмосферное давление.
Tmin - Минимальная температура - минимум температуры воздуха на высоте 2 м над землей.
Tmax - Максимальная температура - максимум температуры воздуха на высоте 2 м над землей.
R - Количество осадков - Количество выпавших осадков за период времени, мм. При наведении курсора мыши на число - период времени, за который выпало указанное количество осадков.
R24 - Количество осадков - Количество выпавших осадков за 24 часа, мм.
S - Снежный покров - Высота снежного покрова, см. При наведении курсора мыши на число - состояние снежного покрова и степень покрытия местности в баллах.